ROMMA est une association bénévole à but non lucratif. Votre soutien est indispensable : ADHERER à ROMMA ou FAIRE un DON

Le Versoud - (38, Isère)

Vallée du Grésivaudan (220 m)   Longitude: 05° 51' 44" E   Latitude: 45° 13' 06" N Station partenaire n°6
 

Détail journalier du     <<     >>

Température Humidité Pression Vent Dir Rafale Dir. rafale Ensol.
Heure (°C) (%) (hPa) (km/h) (km/h) (min)
01:00 13.487101400---0
02:00 12.890101400---0
03:00 12.291101300---0
04:00 11.692101300---0
05:00 11.392101300---0
06:00 10.992101200---0
07:00 10.793101200---0
08:00 10.394101100---0
09:00 10.594101100---0
10:00 13.986101100---25
11:00 17.271101100---60
12:00 19.760101003SE60
13:00 22.153100902SE60
14:00 23.650100802SE60
15:00 24.848100702SE60
16:00 25.846100605SSE60
17:00 26.443100506S60
18:00 26.247100506S55
19:00 23.3561005011SE25
20:00 16.57910106---47O0
21:00 15.68910117SE45SE0
22:00 15.38910101---23SE0
23:00 14.994101000---0
minuit 14.894101002SSO0

Graphique du 01-10-2019

 

Serveur OMMA